[[{"header":{"parameterUnit":"m.s-1","parameterCategory":1,"la1":30.2991,"la2":30.254,"lo1":-89.0895,"lo2":-89.0444,"dy":0.0017,"dx":0.0017,"nx":28,"ny":28,"refTime":"2025-07-27T03:00:00:Z","depth":0,"parameterNumber":2,"parameterNumberName":"U-component_of_WINDS"},"data":[0,0,0,0,0,0,0,0,0,0,0,0,0,0,0,0,0,0,0,0,0,0,0,0,0,0,0,0,0,0,0,0,0,0,0,0,0,0,0,0,0,0,0,0,0,0,0,0,0,0,0,0,0,0,0,0,0,0,-0.9053,-0.9053,0,-0.9034,-0.9034,-0.9034,-0.9,-0.9,-0.8999,-0.8998,-0.898,-0.898,-0.898,0,0,0,0,0,0,0,0,0,0,0,0,0,-0.9061,-0.9061,-0.9053,-0.9052,-0.9052,-0.9034,-0.9034,-0.9033,-0.9,-0.9,-0.8999,-0.8998,-0.898,-0.898,-0.898,0,0,0,0,0,0,0,0,0,0,0,0,0,-0.9051,-0.9061,-0.9053,-0.9034,-0.9032,-0.9034,-0.9034,-0.9033,-0.9001,-0.9,-0.8999,-0.8998,-0.898,-0.898,-0.898,-0.9,0,0,-0.898,-0.898,0,0,0,0,0,0,0,0,-0.9052,-0.9051,-0.9037,-0.9035,-0.9033,-0.9018,-0.903,-0.9022,-0.9001,-0.9012,-0.8998,-0.8997,-0.8993,-0.8992,-0.8991,-0.8999,-0.8998,-0.898,-0.898,-0.898,-0.898,0,0,0,0,0,0,0,-0.9052,-0.9051,-0.9045,-0.9036,-0.9034,-0.9026,-0.9024,-0.9028,-0.9008,-0.9011,-0.9009,-0.9007,-0.8992,-0.8991,-0.899,-0.8998,-0.898,-0.898,-0.898,-0.898,-0.9021,-0.9022,0,0,0,0,0,0,-0.9056,-0.9052,-0.9046,-0.9045,-0.904,-0.9027,-0.9024,-0.9024,-0.9008,-0.9005,-0.9008,-0.9006,-0.8991,-0.899,-0.8989,-0.9011,-0.898,-0.898,-0.8981,-0.902,-0.9021,-0.9023,0,0,0,0,0,0,-0.9056,-0.9055,-0.9047,-0.9048,-0.9046,-0.9028,-0.9028,-0.9024,-0.9023,-0.9006,-0.9002,-0.901,-0.899,-0.8989,-0.8997,-0.901,-0.8981,-0.8981,-0.9019,-0.9021,-0.9022,-0.9056,0,0,0,0,0,0,-0.9056,-0.9056,-0.9063,-0.9048,-0.9046,-0.9055,-0.9029,-0.9024,-0.9023,-0.902,-0.9007,-0.9004,-0.8989,-0.8997,-0.8998,-0.901,-0.8981,-0.9018,-0.902,-0.9022,-0.9054,-0.9059,-0.9063,0,0,0,0,0,-0.9057,-0.9073,-0.9063,-0.9063,-0.9055,-0.9056,-0.9054,-0.9037,-0.9024,-0.9031,-0.902,-0.9004,-0.9009,-0.8998,-0.8998,-0.9011,-0.9017,-0.9019,-0.9021,-0.9052,-0.9058,-0.9063,0,0,0,0,0,0,-0.909,-0.9071,-0.906,-0.9072,-0.9066,-0.905,-0.9058,-0.9044,-0.9042,-0.9039,-0.9018,-0.9015,-0.9026,-0.902,-0.9008,-0.903,-0.901,-0.9013,-0.9034,-0.9039,-0.9044,-0.9045,-0.8981,0,0,0,0,0,-0.9099,-0.9101,-0.9084,-0.9097,-0.9094,-0.9077,-0.9077,-0.9064,-0.9057,-0.9054,-0.9044,-0.9037,-0.9038,-0.9038,-0.9037,-0.9053,-0.905,-0.9062,-0.9066,-0.907,-0.9072,-0.908,-0.9085,-0.903,-0.903,-0.903,0,0,-0.9117,-0.9107,-0.9109,-0.9103,-0.9097,-0.91,-0.9075,-0.9079,-0.9081,-0.9055,-0.9062,-0.9054,-0.9046,-0.9058,-0.9063,-0.9052,-0.9087,-0.9073,-0.9076,-0.9076,-0.9083,-0.9088,-0.9093,-0.9031,-0.9031,-0.9031,0,0,-0.9151,-0.9144,-0.9153,-0.9148,-0.9138,-0.9127,-0.9129,-0.9116,-0.911,-0.9116,-0.9097,-0.9099,-0.91,-0.9095,-0.9092,-0.9125,-0.911,-0.9126,-0.9149,-0.9157,-0.9161,-0.9165,-0.9177,-0.9181,-0.9128,-0.9128,-0.9128,0,-0.9175,-0.9178,-0.916,-0.9166,-0.9163,-0.914,-0.915,-0.9145,-0.9136,-0.9135,-0.9124,-0.9125,-0.9117,-0.9128,-0.9136,-0.9135,-0.9137,-0.9127,-0.9162,-0.9166,-0.9169,-0.918,-0.9184,-0.913,-0.913,-0.913,-0.9129,0,-0.9208,-0.9211,-0.9219,-0.9211,-0.921,-0.9218,-0.9201,-0.9202,-0.919,-0.918,-0.9188,-0.9178,-0.9175,-0.9177,-0.9165,-0.9186,-0.918,-0.9166,-0.9146,-0.9177,-0.9186,-0.9191,-0.9133,-0.9132,-0.9131,-0.9131,0,0,-0.9262,-0.9244,-0.9247,-0.9244,-0.9232,-0.9234,-0.9241,-0.9237,-0.9239,-0.9234,-0.9239,-0.924,-0.9227,-0.9225,-0.9212,-0.9219,-0.9246,-0.9204,-0.9204,-0.9212,-0.9269,-0.9279,-0.9284,-0.9237,-0.9237,-0.9238,-0.9269,0,-0.9293,-0.9303,-0.9288,-0.9301,-0.9304,-0.9282,-0.9288,-0.9282,-0.9273,-0.9274,-0.9264,-0.9265,-0.9248,-0.9246,-0.9252,-0.9242,-0.9257,-0.9239,-0.9241,-0.9241,-0.9243,-0.9289,-0.93,-0.933,-0.9273,-0.9274,-0.9274,0,-0.9331,-0.9328,-0.9342,-0.933,-0.933,-0.9336,-0.9332,-0.9333,-0.9326,-0.9319,-0.9316,-0.9301,-0.9307,-0.9289,-0.9297,-0.9285,-0.9285,-0.928,-0.9281,-0.928,-0.9259,-0.9289,-0.9339,-0.9344,-0.928,-0.928,-0.9279,0,-0.9369,-0.9368,-0.9376,-0.9374,-0.936,-0.9364,-0.9359,-0.935,-0.935,-0.9346,-0.9346,-0.9344,-0.9342,-0.9341,-0.9326,-0.9314,-0.9336,-0.9316,-0.9331,-0.9331,-0.9336,-0.9335,-0.9386,-0.9337,-0.9336,-0.9336,-0.9336,0,-0.9405,-0.9415,-0.9393,-0.9398,-0.9408,-0.939,-0.9401,-0.9393,-0.9386,-0.9389,-0.9371,-0.9374,-0.9355,-0.9357,-0.9345,-0.9354,-0.9354,-0.9348,-0.9345,-0.9349,-0.935,-0.9349,-0.9346,-0.9338,-0.9337,-0.9337,-0.9337,0,-0.9449,-0.9435,-0.9442,-0.9429,-0.9425,-0.9433,-0.9422,-0.9426,-0.9416,-0.9421,-0.9421,-0.9405,-0.9406,-0.9392,-0.939,-0.9382,-0.9396,-0.9389,-0.9398,-0.9396,-0.9411,-0.941,-0.9462,-0.9468,-0.9415,-0.9416,-0.9416,0,-0.9473,-0.9479,-0.9467,-0.9467,-0.9463,-0.9465,-0.9464,-0.9447,-0.9447,-0.9439,-0.9445,-0.9444,-0.9443,-0.9446,-0.9434,-0.9433,-0.9426,-0.9445,-0.9426,-0.943,-0.9426,-0.9426,-0.9426,-0.9448,-0.9449,-0.945,-0.945,0,-0.9517,-0.9509,-0.9509,-0.9506,-0.9506,-0.9503,-0.9499,-0.9501,-0.9482,-0.9483,-0.9484,-0.9483,-0.9482,-0.9482,-0.9478,-0.9473,-0.9458,-0.9456,-0.9459,-0.9464,-0.9469,-0.9466,-0.9409,-0.9455,-0.9454,-0.9454,-0.9454,-0.9454,-0.9551,-0.9556,-0.9548,-0.9548,-0.9543,-0.954,-0.9543,-0.9534,-0.9534,-0.9531,-0.9522,-0.9524,-0.9517,-0.9511,-0.9507,-0.9509,-0.95,-0.9505,-0.9506,-0.9507,-0.951,-0.9469,-0.9509,-0.9508,-0.9508,-0.9508,-0.9508,0,-0.9593,-0.9587,-0.9588,-0.9582,-0.9583,-0.957,-0.9565,-0.9566,-0.9568,-0.9563,-0.9562,-0.9563,-0.9563,-0.9552,-0.9551,-0.9555,-0.9548,-0.9555,-0.9554,-0.9553,-0.9518,-0.9515,-0.956,-0.956,-0.956,-0.956,-0.956,-0.956,-0.9615,-0.9623,-0.9615,-0.9621,-0.9615,-0.9617,-0.9615,-0.9612,-0.9608,-0.961,-0.961,-0.9603,-0.9595,-0.9593,-0.9593,-0.959,-0.959,-0.9599,-0.9594,-0.9561,-0.9556,-0.9551,-0.9548,-0.9599,-0.9599,-0.9629,-0.9629,-0.9629]},{"header":{"parameterUnit":"m.s-1","parameterCategory":1,"la1":30.2991,"la2":30.254,"lo1":-89.0895,"lo2":-89.0444,"dy":0.0017,"dx":0.0017,"nx":28,"ny":28,"refTime":"2025-07-27T03:00:00:Z","depth":0,"parameterNumber":3,"parameterNumberName":"V-component_of_WINDS"},"data":[0,0,0,0,0,0,0,0,0,0,0,0,0,0,0,0,0,0,0,0,0,0,0,0,0,0,0,0,0,0,0,0,0,0,0,0,0,0,0,0,0,0,0,0,0,0,0,0,0,0,0,0,0,0,0,0,0,0,-0.1528,-0.1528,0,-0.1562,-0.1562,-0.1563,-0.1563,-0.1562,-0.1562,-0.1562,-0.1599,-0.16,-0.1601,0,0,0,0,0,0,0,0,0,0,0,0,0,-0.1465,-0.1466,-0.1528,-0.1528,-0.1529,-0.1562,-0.1562,-0.1563,-0.1563,-0.1562,-0.1562,-0.1561,-0.1598,-0.16,-0.1602,0,0,0,0,0,0,0,0,0,0,0,0,0,-0.1495,-0.1467,-0.1528,-0.1533,-0.1534,-0.1562,-0.1562,-0.1563,-0.1563,-0.1562,-0.1562,-0.1561,-0.1598,-0.16,-0.1602,-0.1628,0,0,-0.1608,-0.1609,0,0,0,0,0,0,0,0,-0.1494,-0.1498,-0.1532,-0.1533,-0.1533,-0.1557,-0.1554,-0.1585,-0.1563,-0.1552,-0.1562,-0.1561,-0.1586,-0.1589,-0.1597,-0.163,-0.1631,-0.1608,-0.161,-0.1611,-0.1611,0,0,0,0,0,0,0,-0.1491,-0.1496,-0.1541,-0.1532,-0.1533,-0.1534,-0.1538,-0.156,-0.1572,-0.1553,-0.1553,-0.1557,-0.1586,-0.1595,-0.1597,-0.1632,-0.1608,-0.161,-0.1611,-0.1612,-0.1689,-0.1689,0,0,0,0,0,0,-0.1488,-0.1494,-0.154,-0.1542,-0.1511,-0.1536,-0.154,-0.155,-0.1572,-0.1574,-0.1557,-0.1557,-0.1591,-0.1595,-0.1599,-0.1631,-0.161,-0.1612,-0.1614,-0.1688,-0.1689,-0.169,0,0,0,0,0,0,-0.1487,-0.1492,-0.1539,-0.1518,-0.1524,-0.1537,-0.155,-0.1551,-0.156,-0.1575,-0.1578,-0.1564,-0.1591,-0.1596,-0.1621,-0.1632,-0.1613,-0.1615,-0.1687,-0.1688,-0.1689,-0.1696,0,0,0,0,0,0,-0.1485,-0.1492,-0.1501,-0.1519,-0.1526,-0.156,-0.155,-0.1553,-0.1563,-0.1563,-0.1582,-0.1584,-0.1591,-0.1617,-0.1623,-0.1635,-0.1617,-0.1686,-0.1687,-0.1689,-0.1695,-0.1697,-0.1699,0,0,0,0,0,-0.1483,-0.1502,-0.1502,-0.1507,-0.1538,-0.156,-0.1564,-0.1571,-0.1564,-0.1574,-0.1584,-0.1584,-0.163,-0.162,-0.1626,-0.1639,-0.1685,-0.1687,-0.1689,-0.1694,-0.1697,-0.1699,0,0,0,0,0,0,-0.1487,-0.1505,-0.1504,-0.153,-0.1544,-0.156,-0.1573,-0.1574,-0.159,-0.1589,-0.1597,-0.1601,-0.1626,-0.1635,-0.1623,-0.1666,-0.1657,-0.166,-0.1659,-0.1662,-0.1664,-0.1662,-0.1619,0,0,0,0,0,-0.1491,-0.1507,-0.1522,-0.1543,-0.155,-0.156,-0.157,-0.1574,-0.1589,-0.1595,-0.1606,-0.1621,-0.1639,-0.1651,-0.1668,-0.1696,-0.17,-0.1708,-0.171,-0.1712,-0.1715,-0.173,-0.1734,-0.1695,-0.1695,-0.1695,0,0,-0.1499,-0.1511,-0.1521,-0.1544,-0.1555,-0.1573,-0.1565,-0.1584,-0.1597,-0.1598,-0.1622,-0.1631,-0.1648,-0.1674,-0.1687,-0.1683,-0.1726,-0.1714,-0.1715,-0.1717,-0.1732,-0.1736,-0.1739,-0.1696,-0.1696,-0.1696,0,0,-0.1523,-0.1533,-0.1552,-0.1563,-0.1579,-0.1586,-0.1591,-0.1607,-0.1613,-0.1637,-0.1638,-0.1654,-0.1685,-0.1697,-0.1707,-0.1736,-0.1736,-0.1741,-0.1753,-0.1769,-0.1772,-0.1774,-0.1785,-0.1789,-0.1744,-0.1744,-0.1744,0,-0.1532,-0.1557,-0.1562,-0.1581,-0.1591,-0.1592,-0.1611,-0.1622,-0.1644,-0.1651,-0.1646,-0.1685,-0.1696,-0.1726,-0.1732,-0.1741,-0.1747,-0.1739,-0.1771,-0.1773,-0.1776,-0.1786,-0.179,-0.1744,-0.1744,-0.1744,-0.1744,0,-0.1567,-0.1584,-0.1598,-0.1618,-0.163,-0.1649,-0.1658,-0.1669,-0.1672,-0.1679,-0.1704,-0.1718,-0.1738,-0.1745,-0.1748,-0.1775,-0.1772,-0.1769,-0.176,-0.178,-0.179,-0.1794,-0.1745,-0.1745,-0.1745,-0.1745,0,0,-0.1595,-0.1617,-0.1622,-0.1631,-0.1649,-0.1663,-0.1682,-0.1701,-0.1712,-0.1726,-0.1743,-0.1769,-0.1766,-0.1777,-0.1782,-0.1795,-0.1817,-0.179,-0.1791,-0.1795,-0.1848,-0.1851,-0.1856,-0.1817,-0.1818,-0.1818,-0.1847,0,-0.1621,-0.1655,-0.166,-0.169,-0.1706,-0.1707,-0.1724,-0.1737,-0.1745,-0.176,-0.1769,-0.1787,-0.1781,-0.1789,-0.1802,-0.1812,-0.1828,-0.1809,-0.1834,-0.1834,-0.183,-0.1861,-0.1864,-0.189,-0.1851,-0.1852,-0.1852,0,-0.1657,-0.1672,-0.1703,-0.1718,-0.1726,-0.1741,-0.1759,-0.1773,-0.1789,-0.1793,-0.1806,-0.1808,-0.1829,-0.1819,-0.1848,-0.1835,-0.1846,-0.1852,-0.1853,-0.1856,-0.1845,-0.1865,-0.1899,-0.1903,-0.1858,-0.1858,-0.1857,0,-0.1675,-0.1703,-0.1725,-0.1733,-0.1752,-0.1762,-0.1771,-0.1785,-0.1796,-0.1812,-0.1819,-0.1838,-0.1848,-0.1862,-0.187,-0.1862,-0.1899,-0.1889,-0.1904,-0.1904,-0.1912,-0.1911,-0.1948,-0.1917,-0.1917,-0.1917,-0.1917,0,-0.1704,-0.1723,-0.1733,-0.1747,-0.1769,-0.1775,-0.1796,-0.1805,-0.1817,-0.1833,-0.1835,-0.185,-0.1859,-0.1876,-0.1882,-0.1905,-0.191,-0.1915,-0.1916,-0.1915,-0.1914,-0.1922,-0.1921,-0.1918,-0.1918,-0.1918,-0.1918,0,-0.1728,-0.1735,-0.176,-0.1775,-0.178,-0.1795,-0.1809,-0.1823,-0.183,-0.185,-0.1855,-0.1867,-0.1886,-0.1895,-0.192,-0.1924,-0.1951,-0.1951,-0.1945,-0.1946,-0.196,-0.1959,-0.2004,-0.201,-0.1975,-0.1975,-0.1975,0,-0.1746,-0.1761,-0.1778,-0.1788,-0.1797,-0.1814,-0.1825,-0.1831,-0.1843,-0.1861,-0.1873,-0.1893,-0.1909,-0.194,-0.1951,-0.197,-0.1971,-0.1985,-0.1974,-0.1972,-0.1972,-0.1971,-0.1973,-0.1987,-0.1988,-0.1988,-0.1988,0,-0.1778,-0.1781,-0.1797,-0.1814,-0.1827,-0.1841,-0.1855,-0.1863,-0.1872,-0.1885,-0.1905,-0.1917,-0.1942,-0.1961,-0.1981,-0.199,-0.1991,-0.1992,-0.1996,-0.1995,-0.1992,-0.1994,-0.1952,-0.1991,-0.1991,-0.199,-0.199,-0.199,-0.1801,-0.1814,-0.1828,-0.1845,-0.1856,-0.1869,-0.1882,-0.1891,-0.1907,-0.1927,-0.193,-0.1951,-0.1967,-0.1992,-0.2003,-0.202,-0.2016,-0.2023,-0.2024,-0.2026,-0.2027,-0.1988,-0.2023,-0.2023,-0.2023,-0.2023,-0.2023,0,-0.1833,-0.1842,-0.1858,-0.1877,-0.1891,-0.1889,-0.1904,-0.1916,-0.1934,-0.1948,-0.1964,-0.1986,-0.2005,-0.2018,-0.2037,-0.2048,-0.2049,-0.2053,-0.2053,-0.2055,-0.2029,-0.2023,-0.2052,-0.2052,-0.2052,-0.2052,-0.2052,-0.2052,-0.1852,-0.1874,-0.1879,-0.1907,-0.1915,-0.1936,-0.1944,-0.1956,-0.1967,-0.1992,-0.2008,-0.2015,-0.2029,-0.2049,-0.2066,-0.207,-0.2077,-0.2081,-0.2084,-0.206,-0.2057,-0.2054,-0.2049,-0.2083,-0.2083,-0.2109,-0.211,-0.211]}]]